Find OneWeb SL0650

NORAD ID: 55813 Int'l Des: 2023-029 Owner: ONEWEBN Country: UK Constellation: oneweb operational
別名: ONEWEB-0650 spacetrack, celestrak
LEOCIRCULARPOLARONEWEB_TYPE

現在のビュー

3D地球を読み込み中...

About OneWeb SL0650

OneWeb SL0650 (NORAD 55813) is a oneweb constellation satellite launched Mar 9, 2023 by ONEWEBN of UK. It operates in LEO, CIRCULAR, POLAR, ONEWEB_TYPE orbit with a mass of 148.00 kg.

次回通過

Passes for default location (London). Set your location on the main map for personalized predictions.

高度履歴

Loading altitude history...

軌道要素

1 55813U 23029T 26236.61610649 -.00000039 00000-0 -12999-3 0 9997
2 55813 87.9145 291.3489 0002404 83.4450 276.6957 13.19725858167924
Epoch: Aug 24, 2026 • Age: 20 hours

現在のステータス

高度 1187.6 km
遠地点 / 近地点 N/A
速度 7.26 km/s
衛星直下点 6.38°N, 155.18°E
打ち上げ日 Mar 9, 2023
運用期間 3.4 years
タイプ internet

技術仕様

分類 Payload
質量 148.00 kg
乾燥質量 140.00 kg
総質量 148.00 kg
長さ 1.30 m
直径 1.00 m
スパン 5.00 m
形状 Trapezoid+2 pan
製造者 ONEWUS
バスタイプ ARROW
フェーズステータス In Orbit
所有者/国 ONEWEBN/UK

Most Searched